Location: *
(34.0486°S, 61.7880°E)
Time: 16:54:48
(UTC+00:00)

Meteor 2-21 - Pass Details

Date: 01 April 2020
Orbit: 935 x 966 km, 82.6° (Epoch: 24 May)

Event Time Altitude Azimuth Distance (km) Brightness Sun altitude
Rises 14:46:55 0° 2° (N) 3,609 7.4 -13.2°
Reaches altitude 10° 14:49:24 10° 5° (N) 2,676 6.7 -13.7°
Maximum altitude 14:55:28 69° 86° (E) 1,030 4.4 -14.9°
Drops below altitude 10° 15:01:41 10° 168° (SSE) 2,727 6.8 -16.2°
Sets 15:04:13 0° 170° (S) 3,683 7.5 -16.7°
